Location: *
(51.1000°S, 179.8167°W)
Time: 04:24:19
(UTC+00:00)

Daily predictions for brighter satellites

Satellite Brightness Start Highest point End
(mag) Time Altitude Azimuth Time Altitude Azimuth Time Altitude Azimuth
Cosmos 2360 Rocket 3.4 06:32:42 10° SW 06:38:11 47° WNW 06:43:37 10° N
Okean 1-7 3.0 06:35:57 10° N 06:40:19 81° E 06:44:47 10° SSE
Cosmos 1437 Rocket 3.5 06:36:28 10° SSW 06:40:35 61° W 06:44:34 10° N
CZ-2D R/B 3.7 06:37:59 10° S 06:41:54 70° WSW 06:45:47 10° NNW
Cosmos 1300 Rocket 3.9 06:38:20 10° S 06:42:37 45° ESE 06:46:49 10° NNE
SJ-11-01 4.3 06:37:53 10° SSE 06:42:39 67° ENE 06:47:20 10° N
Cosmos 1782 Rocket 3.6 06:38:57 10° S 06:43:29 75° E 06:47:53 10° NNE
NOAA 6 4.1 06:38:40 10° SSE 06:43:51 64° ENE 06:48:58 10° N
ADEOS 3.7 06:38:52 10° SSE 06:44:13 89° WSW 06:49:30 10° NNW
COSMOS 2428 2.8 06:40:10 10° SSW 06:45:56 72° ESE 06:51:40 10° NE
YAOGAN 1 3.9 06:46:03 10° SE 06:49:20 20° E 06:52:35 10° NE
Cosmos 405 Rocket 3.4 06:45:41 10° NNW 06:49:27 59° WSW 06:53:13 10° S
Okean 2 Rocket 4.1 06:46:47 10° S 06:50:42 28° ESE 06:54:35 10° NE
Alouette 2 Rocket 3.8 06:47:26 10° N 06:51:49 43° E 06:55:22 10° SSE
SJ 16-02 1.4 06:47:18 10° SSW 06:51:51 89° WNW 06:56:18 10° NNE
Cosmos 1300 4.5 06:49:53 10° SSE 06:52:19 16° ESE 06:54:38 10° ENE
KORONAS-FOTON 4.2 06:51:23 10° NNE 06:54:59 41° E 06:58:37 10° SSE
Meteor 2-15 4.5 06:50:09 10° N 06:56:20 79° E 07:02:35 10° SSE
Cosmos 1777 Rocket 4.1 06:51:19 10° SSW 06:56:42 71° ESE 07:02:00 10° NNE
Meteor 1-21 4.4 06:51:34 10° NNE 06:56:59 50° E 07:02:29 10° SSE
NOSS 0 Rocket 4.1 06:50:59 10° SSW 06:57:14 62° SE 07:03:24 10° NE
CZ-4C R/B 4.2 06:54:41 10° NE 06:59:23 17° ENE 07:03:44 10° ESE
ARGOS 3.4 06:55:09 10° SSE 07:00:39 81° WSW 07:06:05 10° NNW
CZ-4B R/B 3.9 06:57:45 10° SSE 07:02:29 29° E 07:07:07 10° NNE
Okean 2 4.0 06:59:29 10° NNE 07:03:19 36° E 07:07:09 10° SSE
Cosmos 1707 2.7 07:01:20 10° N 07:05:14 75° E 07:09:12 10° SSE
USA 305 3.1 07:01:11 10° WSW 07:05:20 62° S 07:08:59 13° E
CZ-4B R/B 3.5 07:01:26 10° S 07:05:33 65° WSW 07:09:50 10° NNW
Cosmos 1842 4.0 07:01:40 10° NNW 07:05:36 60° WSW 07:09:34 10° S
Cosmos 1626 2.1 07:08:02 10° N 07:11:39 57° E 07:15:21 10° SSE
PSLV R/B 4.3 07:09:14 10° NE 07:13:20 50° ESE 07:17:30 10° S
Cosmos 2279 Rocket 4.2 07:07:31 10° NNE 07:13:36 53° E 07:19:43 10° SSE
Cosmos 1271 Rocket 4.0 07:10:59 10° SSE 07:14:08 23° ESE 07:15:56 17° ENE
Geosat 4.0 07:09:26 10° NNE 07:14:30 88° ESE 07:19:38 10° SSW
Meteor 1-16 Rocket 4.3 07:10:02 10° S 07:15:20 54° ESE 07:20:38 10° NNE
SL-16 R/B 3.5 07:11:12 10° SSW 07:15:59 26° SE 07:19:50 14° E
Kosmos-1675 4.4 07:08:46 10° SW 07:16:45 77° NW 07:20:37 10° NNE
Meteor 2-15 Rocket 4.5 07:11:51 10° N 07:18:03 87° E 07:24:20 10° S
Cosmos 2151 Rocket 4.0 07:13:57 10° S 07:18:23 45° ESE 07:22:24 12° NE
Cosmos 1634 Rocket 4.0 07:12:18 10° N 07:18:38 83° E 07:25:04 10° S
Lacrosse 5 rocket 1.7 07:16:28 10° NNW 07:19:48 33° NE 07:22:29 15° ESE
APEX 3.9 07:15:25 10° SSW 07:20:23 53° SE 07:23:20 18° ENE
ATLAS CENTAUR R/B 3.9 07:20:58 10° SSW 07:22:13 11° SSW 07:23:29 10° S
Cosmos 2026 Rocket 4.4 07:15:57 10° SSW 07:22:19 69° W 07:28:31 10° N
Meteor 2-10 Rocket 4.1 07:18:05 10° S 07:23:03 39° ESE 07:26:59 16° NE
CZ-4B DEB 4.2 07:17:52 10° SSE 07:23:30 75° ENE 07:29:00 10° N
Cosmos 1758 3.4 07:19:55 10° SSW 07:24:01 82° W 07:28:00 10° N
H-2A R/B 2.2 07:19:58 10° NNE 07:24:27 63° ESE 07:29:01 10° S
Genesis I 2.9 07:21:16 10° NW 07:24:56 76° NE 07:28:37 10° SE
Cosmos 2242 Rocket 4.2 07:20:41 10° NNW 07:25:11 62° WSW 07:29:46 10° S
Cosmos 1908 3.2 07:21:17 10° S 07:25:15 86° E 07:29:08 10° N
Cosmos 990 Rocket 4.5 07:21:58 10° SSW 07:26:57 44° ESE 07:30:23 19° ENE
Aureole 3 Rocket 3.5 07:25:25 17° NE 07:27:19 26° E 07:30:07 10° SE
PSLV R/B 3.8 07:23:55 10° SSE 07:28:04 75° ENE 07:32:03 10° N
CENTAUR R/B 4.1 07:22:23 10° W 07:29:10 37° SSW 07:34:54 10° SE
SL-23 DEB 4.3 07:27:21 10° W 07:31:15 87° S 07:35:53 18° E
Sich 1 Rocket 3.6 07:28:36 10° S 07:33:14 80° E 07:37:44 10° NNE
CZ-4B R/B 2.0 07:33:07 28° E 07:33:48 32° ESE 07:36:35 10° S
Cosmos 1607 4.3 07:29:45 10° SW 07:36:07 66° NW 07:42:07 11° NNE
Okean-O 4.3 07:33:33 10° SE 07:35:47 16° ESE 07:35:47 16° ESE
USA 276 2.5 07:35:56 10° NW 07:38:47 39° NNE 07:39:22 35° NE
FALCON 9 DEB 4.2 07:37:09 10° NNW 07:39:25 24° NNE 07:39:25 24° NNE
USA 307 2.9 07:37:41 10° WSW 07:41:51 70° SSE 07:44:03 26° E
Cosmos 1674 Rocket 3.9 07:38:37 10° NNE 07:42:50 43° E 07:47:09 10° SSE
ATLAS 3B R/B 3.2 07:39:17 10° N 07:45:56 38° ENE 07:52:17 10° SE
Cosmos 1898 Rocket 4.0 07:43:45 10° SSW 07:48:47 43° ESE 07:51:09 27° ENE
Cosmos 1818 3.9 07:44:07 10° NW 07:49:29 67° SW 07:54:55 10° SE
SL-14 R/B 3.4 07:45:48 10° N 07:49:48 56° E 07:53:50 10° SSE
CZ-4 R/B 1.5 07:45:55 10° SSE 07:49:51 51° E 07:53:19 13° N
ATLAS 5 CENTAUR R/B 2.1 07:44:20 10° SW 07:50:22 76° NW 07:53:24 24° NNE
Cosmos 2227 Rocket 3.0 07:49:16 23° NE 07:51:17 28° ENE 07:56:04 10° SE
USA 306 2.8 07:50:10 10° WSW 07:54:22 82° SSE 07:56:02 35° ENE
SJ-6B 4.0 07:53:34 10° SE 07:56:12 26° ESE 07:56:12 26° ESE
Cosmos 1980 3.8 07:53:55 10° SSW 07:59:39 81° WNW 08:03:27 22° NNE
Cosmos 2219 Rocket 4.3 07:57:16 10° SW 08:01:48 25° WNW 08:06:19 10° NNW
Cosmos 2221 Rocket 3.6 07:58:06 10° N 08:02:42 87° ENE 08:07:22 10° S
ERBS 2.4 08:01:47 10° SW 08:04:42 49° SSE 08:04:52 49° SE
Cosmos 2297 Rocket 2.3 07:59:47 10° N 08:05:16 51° ENE 08:10:47 10° SE
Cosmos 1953 2.4 08:01:36 10° SSW 08:05:44 81° W 08:08:02 25° N
Cosmos 1238 Rocket 3.8 08:00:15 10° S 08:06:07 55° ESE 08:08:13 34° NE
Cosmos 1674 4.5 08:04:40 10° NW 08:08:04 33° WSW 08:11:31 10° S
Okean O Rocket 1.5 08:05:36 10° SSE 08:10:05 87° E 08:14:30 10° NNW
HJ-1C 3.9 08:07:22 10° S 08:10:32 56° WSW 08:13:39 10° NNW
Cosmos 1378 Rocket 3.4 08:08:26 14° N 08:12:05 80° E 08:16:31 10° SSE
USA 234 3.9 08:07:56 11° ESE 08:14:02 55° S 08:20:28 10° W
USA 308 2.7 08:12:36 10° WSW 08:16:49 90° NE 08:17:39 56° ENE
CSL-04 Debris 4.5 08:11:32 10° SSE 08:16:54 45° E 08:18:25 37° NE
Cosmos 1655 Rocket 4.0 08:10:40 10° S 08:17:10 89° W 08:21:59 19° N
CRYOSAT 2 4.5 08:14:02 10° S 08:19:00 78° W 08:23:47 11° NNW
Cosmos 1763 Rocket 3.5 08:15:00 10° N 08:20:08 57° ENE 08:25:24 10° SSE
Cosmos 2237 Rocket 2.6 08:14:39 10° SW 08:20:21 63° WNW 08:23:39 25° N
Okean 1 Rocket 3.0 08:17:29 10° SSW 08:21:57 85° W 08:23:32 40° N
Meteor 1-24 Rocket 4.4 08:21:43 35° E 08:22:03 35° E 08:27:25 10° SSE
SL-8 R/B 4.2 08:18:15 10° NW 08:22:31 40° NNE 08:22:31 40° NNE
USA 186 3.4 08:19:58 10° SSE 08:21:31 25° SSE 08:21:31 25° SSE
Cosmos 1455 Rocket 3.5 08:21:17 10° S 08:25:33 43° ESE 08:25:33 43° ESE
YAOGAN 1 3.3 08:21:25 10° S 08:25:44 54° WSW 08:30:00 10° NNW
Cosmos 1300 3.2 08:24:24 10° SSW 08:28:13 56° W 08:29:28 37° NNW
Okean 2 Rocket 4.5 08:24:42 10° SSW 08:28:51 37° W 08:32:45 11° NNW
SJ 16-02 4.3 08:27:51 10° WSW 08:29:37 12° W 08:31:22 10° WNW
H-2A R/B 4.4 08:29:09 10° SE 08:31:00 20° SE 08:31:00 20° SE
Cosmos 372 Rocket 4.2 08:28:46 10° SSW 08:34:02 56° ESE 08:34:57 49° E
Cosmos 220 Rocket 4.2 08:29:41 10° SSW 08:34:10 71° WNW 08:35:11 51° N
Cosmos 2266 Rocket 4.4 08:32:16 10° SSW 08:38:26 61° W 08:43:23 17° NNW
Landsat 7 4.2 08:37:06 10° SSE 08:41:02 45° ESE 08:41:02 45° ESE
Cosmos 2219 3.2 08:42:08 53° NE 08:42:29 54° ENE 08:48:03 10° SE
CZ-4B R/B 4.0 08:38:02 10° S 08:43:18 50° WSW 08:48:27 10° NW
Feng Yun 1-1 Rocket 4.5 08:37:48 10° SSE 08:43:50 78° WSW 08:49:42 10° NNW
USA 305 3.1 08:40:39 10° WSW 08:44:31 57° NW 08:44:31 57° NW
USA 81 3.9 08:43:32 46° N 08:45:09 82° E 08:50:34 10° S
CZ-4C R/B 2.9 08:38:55 10° NNW 08:47:05 60° NE 08:53:55 10° SE
CSL-04 Rocket 3.5 08:42:20 10° SSE 08:47:46 69° ENE 08:48:40 58° NNE
Cosmos 1455 3.3 08:45:02 10° S 08:47:40 37° SSE 08:47:40 37° SSE
Cosmos 1271 Rocket 4.1 08:46:35 10° SSW 08:50:05 34° W 08:50:59 30° WNW
Meteor 2-5 Rocket 3.7 08:50:46 58° NE 08:51:31 63° E 08:57:22 10° SSE
Cosmos 2263 Rocket 4.4 08:55:43 11° SE 08:55:43 11° SE 08:56:01 10° SE
Resurs 01 Rocket 3.4 08:48:10 10° SSE 08:50:00 21° SE 08:50:00 21° SE
IGS 5A 3.5 08:52:00 10° SSE 08:56:09 79° SW 08:56:09 79° SW
Cosmos 1244 Rocket 4.4 08:50:33 10° S 08:56:49 75° ESE 08:58:09 57° NE
Lacrosse 5 rocket 1.9 08:54:58 10° WNW 08:58:02 50° WSW 08:58:02 50° WSW
SL-16 R/B 2.1 08:55:01 10° SSW 09:00:49 84° WNW 09:01:43 65° NNE
ATLAS CENTAUR R/B 3.9 09:00:59 10° S 09:02:28 12° SSE 09:03:23 11° SSE
Cosmos 1937 Rocket 3.5 08:59:04 10° SSW 09:04:24 72° WNW 09:04:59 65° NNW
CZ-4B R/B 3.9 09:05:13 16° W 09:05:13 16° W 09:07:09 10° SW
OBJECT-B 3.6 09:06:00 10° SSW 09:06:36 14° SSW 09:06:36 14° SSW
Cosmos 858 Rocket 4.5 09:03:22 10° SSW 09:08:41 75° WNW 09:09:03 71° NNW
CZ-2C R/B 4.3 09:08:18 49° WNW 09:08:45 51° W 09:13:12 10° SSW
Cosmos 44 3.4 09:07:05 10° SW 09:12:21 73° SE 09:12:21 73° SE
Okean-O 2.9 09:08:55 10° S 09:13:21 68° WSW 09:13:21 68° WSW
Resurs 1-3 4.0 09:11:22 10° S 09:15:15 63° SSW 09:15:15 63° SSW
USA 307 4.4 09:17:13 10° WSW 09:19:38 29° W 09:19:38 29° W
CENTAUR R/B 4.2 09:15:56 10° SW 09:21:28 26° S 09:25:32 13° SE
Cosmos 1745 Rocket 4.0 09:15:54 10° S 09:22:12 62° ESE 09:22:19 61° E
CZ-4 R/B 4.0 09:21:33 10° SSW 09:24:29 20° WSW 09:27:25 10° WNW
SJ-6B 4.5 09:28:03 10° S 09:31:36 31° WSW 09:31:44 31° WSW
Cosmos 1544 Rocket 4.4 09:27:04 10° S 09:30:23 49° SSW 09:30:23 49° SSW
S3M 4.4 09:34:31 48° ESE 09:34:31 48° ESE 09:39:32 10° SSE
ATLAS 5 CENTAUR R/B 4.2 09:30:53 10° WSW 09:33:43 14° WNW 09:34:52 14° WNW
Cosmos 1943 3.5 09:28:24 10° SSW 09:33:43 57° SE 09:33:43 57° SE
Cosmos 2227 Rocket 2.6 09:30:39 18° NW 09:34:58 61° SW 09:40:41 10° SSE
ATLAS 3B R/B 3.0 09:29:04 10° NW 09:36:23 69° SW 09:43:17 10° SE
BREEZE-M DEB (TANK) 3.9 09:23:30 10° WNW 09:36:47 58° NNW 09:36:47 58° NNW
Cosmos 1025 Rocket 4.2 09:38:46 43° SSW 09:38:46 43° SSW 09:42:00 10° S
Cosmos 967 Rocket 4.4 09:31:13 10° SW 09:37:41 88° NW 09:37:52 85° NNE
Cosmos 1603 4.1 09:35:11 10° SSW 09:40:31 55° SE 09:40:31 55° SE
Cosmos 540 Rocket 4.1 09:43:16 48° W 09:44:00 53° WSW 09:49:09 10° SSE
Cosmos 1975 Rocket 4.4 09:46:21 39° SSW 09:46:21 39° SSW 09:49:32 10° S
Cosmos 2297 Rocket 3.6 09:44:16 10° WNW 09:49:31 37° SW 09:54:49 10° SSE
Cosmos 841 Rocket 4.1 09:54:37 53° S 09:54:37 53° S 09:58:51 10° SSE
Cosmos 1417 Rocket 4.5 09:56:13 80° SSE 09:56:13 80° SSE 10:02:15 10° S
USA 234 3.5 09:55:16 53° ESE 09:56:37 64° SSE 10:03:09 10° WSW
Cosmos 371 Rocket 4.3 09:52:28 10° SSW 09:55:55 45° SW 09:55:55 45° SW
Cosmos 1709 Rocket 4.1 09:52:08 10° S 09:58:01 68° SE 09:58:01 68° SE
SPOT 1/Viking Rocket 4.1 09:54:34 10° SSE 09:58:52 57° SSW 09:58:52 57° SSW
Cosmos 2285 Rocket 4.3 10:03:30 59° SE 10:03:30 59° SE 10:08:44 10° SSE
H-2A R/B 4.2 10:04:17 10° S 10:07:29 35° SSW 10:07:29 35° SSW
Cosmos 1553 Rocket 4.4 10:09:58 56° W 10:10:33 59° WSW 10:16:53 10° S
NOSS 3-1 (C) 4.0 10:07:23 10° NW 10:16:24 86° SW 10:24:01 10° SE
Resurs 01 Rocket 3.5 10:24:44 10° S 10:27:33 28° SW 10:27:33 28° SW
Cosmos 2315 Rocket 4.5 10:34:50 56° SSE 10:34:50 56° SSE 10:39:42 10° S
Ariane Rocket 4.2 10:29:31 10° S 10:32:55 39° S 10:32:55 39° S
Cosmos 2263 Rocket 3.3 10:37:21 38° SSE 10:37:21 38° SSE 10:40:50 10° SSE
CZ-4C R/B 3.4 10:28:11 10° WNW 10:35:57 52° SW 10:42:20 10° SE
ATLAS CENTAUR R/B 4.3 10:38:51 10° SSW 10:39:21 13° SSW 10:39:21 13° SSW
Terra 3.8 10:38:04 10° SSE 10:39:58 24° SSE 10:39:58 24° SSE
SL-16 R/B 4.4 10:40:40 10° WSW 10:43:36 16° W 10:43:36 16° W
SPOT 5 4.4 10:48:47 10° S 10:52:01 38° S 10:52:01 38° S
USA 229 DEB 4.4 10:58:24 50° SE 10:58:24 50° SE 11:03:28 10° SE
USA 229 4.4 10:58:32 49° SE 10:58:32 49° SE 11:03:34 10° SE
CENTAUR R/B 3.4 11:07:46 10° SW 11:12:40 39° S 11:12:40 39° S
CZ-2D R/B 3.9 11:26:36 26° SE 11:26:36 26° SE 11:29:50 10° S
NOSS 3-1 (A) 4.2 11:24:31 63° WSW 11:25:27 68° SW 11:32:52 10° SE
Resurs 1-4 Rocket 3.8 11:26:46 27° SE 11:26:46 27° SE 11:30:11 10° S
ATLAS 3B R/B 4.2 11:21:54 10° W 11:28:13 33° SSW 11:34:15 10° SE
Cosmos 1833 Rocket 4.1 11:26:11 10° SSW 11:30:16 35° SSE 11:30:16 35° SSE
NOSS 3-2 (A) 4.2 11:28:01 10° SW 11:33:46 50° S 11:33:46 50° S
USA 234 4.3 11:42:35 35° WSW 11:42:35 35° WSW 11:46:15 10° WSW
IDEFIX/ARIANE 42P 4.5 11:46:15 23° SE 11:46:15 23° SE 11:49:38 10° S
Cosmos 2082 Rocket 3.9 11:43:52 10° SSW 11:48:47 27° SE 11:49:09 27° SE
